Location: Unspecified
(35.7250°N, 0.0000°E)
Time: 02:29:14
(UTC+00:00)

Vanguard 2 - Pass Details

Date: 23 June 2019
Orbit: 554 x 2937 km, 32.9° (Epoch: 14 October)

Event Time Altitude Azimuth Distance (km) Brightness Sun altitude
Rises 10:14:01 0° 269° (W) 3,450 10.6 63.6°
Reaches altitude 10° 10:16:06 10° 267° (W) 2,715 10.2 64.0°
Maximum altitude 10:22:43 73° 184° (S) 1,409 10.3 65.2°
Drops below altitude 10° 10:34:07 10° 102° (ESE) 4,511 11.9 67.3°
Sets 10:38:35 0° 101° (ESE) 5,877 12.3 68.1°
